Regional Weather Roundup
Issued by NWS

Home | Current Version | Previous Version | Text Only | Print | Product List | Glossary On
Versions: 1 2 3 4 5 6 7 8 9 10 11 12 13 14 15 16 17 18 19 20 21 22 23 24 25 26 27 28 29 30 31 32 33 34 35 36 37 38 39 40 41 42 43 44 45 46 47 48 49 50
000
ASUS43 KLMK 161610
RWRKY
KENTUCKY REGIONAL WEATHER ROUNDUP
NATIONAL WEATHER SERVICE LOUISVILLE KY
1100 AM EST MON JAN 16 2017

NOTE "FAIR" INDICATES FEW OR NO CLOUDS BELOW 12,000 FEET
WITH NO SIGNIFICANT WEATHER AND/OR OBSTRUCTIONS TO VISIBILITY.

KYZ001>023-026-027-061>063-070>075-161700-
WESTERN AND SOUTH CENTRAL KENTUCKY

CITY           SKY/WX    TMP DP  RH WIND       PRES   REMARKS
PADUCAH        CLOUDY    51  49  92 SE8       30.16F
HENDERSON      CLOUDY    46  45  93 SE6       30.20S
OWENSBORO      CLOUDY    50  48  93 SE9       30.22F
HOPKINSVILLE   DRIZZLE   50  50 100 CALM      30.22R
BOWLING GREEN  CLOUDY    53  50  89 CALM      30.25S
GLASGOW        CLOUDY   N/A N/A N/A CALM      30.25F
$$

KYZ024-025-028>034-038-045-046-053-161700-
NORTH CENTRAL KENTUCKY

CITY           SKY/WX    TMP DP  RH WIND       PRES   REMARKS
LOUISVILLE/SDF PTSUNNY   49  44  83 E3        30.26S
LOUISVILLE/LOU CLOUDY    50  44  80 SE3       30.27S
FORT KNOX      CLOUDY    45  45 100 S3        30.24R
$$

KYZ035>037-039>044-047>052-055>060-089>105-161700-
NORTHEAST KENTUCKY

CITY           SKY/WX    TMP DP  RH WIND       PRES   REMARKS
LEXINGTON      PTSUNNY   50  46  86 SE6       30.28S
COVINGTON      CLOUDY    43  41  93 SE6       30.27F FOG
FRANKFORT      CLOUDY    49  44  83 SE5       30.26F
$$

KYZ054-064>069-076>088-106>120-161700-
SOUTHEAST KENTUCKY

CITY           SKY/WX    TMP DP  RH WIND       PRES   REMARKS
JACKSON        MOSUNNY   50  47  89 CALM      30.29F
LONDON         CLOUDY    52  49  89 SE3       30.29S
SOMERSET       CLOUDY    48  48 100 CALM      30.30S
MIDDLESBORO    CLOUDY    55  54  97 CALM      30.33S
MONTICELLO     CLOUDY    56  54  93 E7        30.30R
$$





USA.gov is the U.S. government's official web portal to all federal, state and local government web resources and services.